Regional Weather Roundup
Issued by NWS Green Bay, WI

Home | Current Version | Previous Version | Text Only | Print | Product List | Glossary On
Versions: 1 2 3 4 5 6 7 8 9 10 11 12 13 14 15 16 17 18 19 20 21 22 23 24 25 26 27 28 29 30 31 32 33 34 35 36 37 38 39 40 41 42 43 44 45 46 47 48 49 50
000
ASUS43 KGRB 010610
RWRGRB

NORTH-CENTRAL AND NORTHEAST WISCONSIN REGIONAL WEATHER ROUNDUP
NATIONAL WEATHER SERVICE GREEN BAY WI
1200 AM CST SUN FEB 01 2015

WIZ005-009-010>012-018-019-010700-
NORTH CENTRAL WISCONSIN

CITY           SKY/WX    TMP DP  RH WIND       PRES   REMARKS
IRONWOOD       CLOUDY     9   3  78 E17       30.30R WCI -10
MANITOWISH WTR CLOUDY     6   0  75 E10       30.26R WCI  -9
ARBOR VITAE    CLOUDY    11   4  73 NE7       30.26R WCI   1
EAGLE RIVER    CLOUDY     7  -1  70 E10       30.26R WCI  -8
LAND O LAKES   MOCLDY     5   1  81 N6        30.27S WCI  -6
RHINELANDER    CLOUDY     8   0  69 NE9G18    30.25R WCI  -5
PHILLIPS       CLOUDY    10   2  70 NE7       30.25R WCI  -1
ANTIGO         CLOUDY    12   6  76 E9        30.24R WCI   0
TOMAHAWK       CLOUDY    11   3  69 NE10      30.25R WCI  -2
MERRILL        CLOUDY    14   6  69 E9        30.24S WCI   2
$$

WIZ013-073-010700-
NORTHEAST WISCONSIN

CITY           SKY/WX    TMP DP  RH WIND       PRES   REMARKS
IRON MOUNTAIN  MOCLDY     7  -1  70 NW6       30.28S WCI  -3
MARINETTE      MOCLDY    12   1  62 N8        30.31R WCI   1
OCONTO         CLOUDY    13   4  66 MISG      30.32R
$$

WIZ017-030-035>037-045-010700-
CENTRAL WISCONSIN

CITY           SKY/WX    TMP DP  RH WIND       PRES   REMARKS
MEDFORD        CLOUDY    14   6  71 NE13      30.20S WCI   0
WAUSAU         CLOUDY    16   7  67 NE9       30.22R WCI   4
MOSINEE        CLOUDY    19  12  73 NE14      30.22S WCI   6
MARSHFIELD     CLOUDY    20  11  68 NE17      30.19S WCI   5
WISC RAPIDS    CLOUDY    23  16  74 E16       30.21S WCI  10
STEVENS POINT  CLOUDY    19  13  77 E12       30.22S WCI   6
WAUPACA        CLOUDY    20  11  68 E12G17    30.26R WCI   8
SHAWANO        CLOUDY    17   7  65 NE15      30.30R WCI   2
CLINTONVILLE   CLOUDY    18   9  68 E16       30.28R WCI   3
$$

WIZ038-039-048-051-010700-
FOX VALLEY

CITY           SKY/WX    TMP DP  RH WIND       PRES   REMARKS
NWS GREEN BAY  CLOUDY    16   8  71 NE23      30.30R WCI  -2
APPLETON       CLOUDY    18  10  73 NE20      30.27R WCI   1
OSHKOSH        CLOUDY    20  11  68 NE15G23   30.24R WCI   6
FOND DU LAC    LGT SNOW  22  15  75 NE14      30.23R WCI   9
$$

WIZ022-050-052-010700-
EAST CENTRAL WISCONSIN

CITY           SKY/WX    TMP DP  RH WIND       PRES   REMARKS
STURGEON BAY   CLOUDY    14   3  62 N10       30.32R WCI   1
MANITOWOC      FLURRIES  21  15  78 NE8       30.27R
SHEBOYGAN      CLOUDY    24  18  77 NE20G26   30.23R WCI  10
$$

LMZ563-521-522-541>543-010700-
LAKESHORE

STATION/POSITION TIME  TEMP    WIND        PRES    VSBY  WAVE
                       AIR SEA DIR/SP/G                  HT/PER
                 (UTC) (F)     (DEG/KT/KT) (MB)    (MI)  (FT/S)
SHEBOYGAN LKSHOR 0600   26      40/ 23/ 24 1025.0R
KEWAUNEE LKSHORE 0600   17     360/ 11/ 14 1024.6R
NORTHPORT PIER   0600   15     360/ 17/ 20 1026.1S
SISTER BAY LKSHO 0600   14     360/ 14/ 18   N/A
CHAMBERS ISLAND  0600   13     340/ 15/ 17 1026.1S
MENOMINEE LKSHOR 0600   13     350/ 12     1027.1R
$$


USA.gov is the U.S. government's official web portal to all federal, state and local government web resources and services.